"Pseudo-MPEC" for ZTF0D8m

Created 2020 Feb 29 1:07:18 UT using Find_Orb

Click here for an explanation of pseudo-MPECs

 
 Astrometry: 
     ZTF0D8m  C2020 02 15.22506908 51 07.43 +22 30 12.3    ~2H27 19.21rUNEOCPI41
     ZTF0D8m  C2020 02 15.22645908 51 07.33 +22 30 12.6    ~2H27 19.22rUNEOCPI41
     ZTF0D8m  C2020 02 16.22787008 50 49.02 +22 29 48.8    ~2H27 19.49gUNEOCPI41
     ZTF0D8m  C2020 02 16.22877008 50 48.95 +22 29 49.0    ~2H27 19.61gUNEOCPI41
     ZTF0D8m KC2020 02 28@O-fPohAstrometryr.4nredacted;Sclick$\s0xL//j86NInLjL39
     ZTF0D8m KC2020 02 28up1KWQ!Lts4.Bg3XaC0g-?WK1GSZ;Y%7O6aAq3;EHJgi7yPhere4L39
     ZTF0D8m KC2020 02 28/=A)NF:uyO7forXT(bDxIeo6[:8_[(vZ20DP,MexplanationXRAL39

Station data:
(I41) Palomar Mountain--ZTF  (N33.357340 W116.859780)  US/California. 1.2-m
   f/2.44 Oschin Schmidt + CCD.
(L39) Osservatorio Spica, Signa  (N43.789205 E11.040310)  Italy.

Orbital elements:  ZTF0D8m
   Perihelion 2019 Dec 25.141296 +/- 15 TT =  3:23:27 (JD 2458842.641296)
Epoch 2020 Feb 28.0 TT = JDT 2458907.5   Ju: 0.1412   Sa: 0.1357   Ur: 0.5827
M   0.43621624 +/- 0.06             (J2000 ecliptic)          AutoNEOCP
n   0.00672563 +/- 0.00105          Peri.   98.88967 +/- 5.6
a  27.7958742 +/- 2.86              Node    18.78884 +/- 0.58
e   0.9100765 +/- 0.00954           Incl.    3.25996 +/- 0.018
P 146.54                   H 16.2   G  0.15   U  8.1  
q 2.49950066 +/- 0.021    Q 53.0922478 +/- 5.02
From 7 observations 2020 Feb. 15-28; mean residual 0".33
Residuals in arcseconds: 
200215 I41  .49+  .16-    200216 I41  .36-  .11+    200228 L39  .25+  .49+    
200215 I41  .50-  .16+    200228 L39  .37-  .54-    
200216 I41  .36+  .11-    200228 L39  .11+  .05+    

Ephemerides (geocentric):
Date (UTC) HH   RA              Dec         delta   r     elong  mag " sig PA
---- -- -- --  -------------   -----------  ------ ------ -----  --- ---- ---
2020 02 29 01  08 48 21.752   +22 16 10.99  1.6935 2.5908 148.6 20.2 .186 128
2020 02 29 02  08 48 21.582   +22 16 06.74  1.6938 2.5909 148.5 20.2 .228 130
2020 02 29 03  08 48 21.413   +22 16 02.47  1.6942 2.5910 148.5 20.2 .270 132
2020 02 29 04  08 48 21.247   +22 15 58.19  1.6946 2.5911 148.4 20.2 .313 133
2020 02 29 05  08 48 21.083   +22 15 53.90  1.6949 2.5912 148.4 20.2 .357 134
2020 02 29 06  08 48 20.920   +22 15 49.60  1.6953 2.5913 148.4 20.2 .401 134
2020 02 29 07  08 48 20.761   +22 15 45.29  1.6956 2.5915 148.3 20.2 .445 135
2020 02 29 08  08 48 20.603   +22 15 40.98  1.6960 2.5916 148.3 20.2 .490 135
2020 02 29 09  08 48 20.448   +22 15 36.65  1.6963 2.5917 148.2 20.2 .535 136
2020 02 29 10  08 48 20.294   +22 15 32.31  1.6967 2.5918 148.2 20.2 .580 136
2020 02 29 11  08 48 20.143   +22 15 27.96  1.6971 2.5919 148.2 20.2 .626 136
2020 02 29 12  08 48 19.994   +22 15 23.60  1.6974 2.5920 148.1 20.2 .673 137
2020 02 29 13  08 48 19.848   +22 15 19.22  1.6978 2.5921 148.1 20.2 .719 137
2020 02 29 14  08 48 19.703   +22 15 14.84  1.6981 2.5923 148.0 20.2 .767 137
2020 02 29 15  08 48 19.561   +22 15 10.45  1.6985 2.5924 148.0 20.2 .814 137
2020 02 29 16  08 48 19.421   +22 15 06.05  1.6989 2.5925 147.9 20.2 .862 137
2020 02 29 17  08 48 19.283   +22 15 01.64  1.6992 2.5926 147.9 20.2 .910 137
2020 02 29 18  08 48 19.148   +22 14 57.22  1.6996 2.5927 147.9 20.2 .959 137
2020 02 29 19  08 48 19.014   +22 14 52.78  1.7000 2.5928 147.8 20.2 1.01 137
2020 02 29 20  08 48 18.883   +22 14 48.34  1.7003 2.5929 147.8 20.2 1.06 137
2020 02 29 21  08 48 18.754   +22 14 43.89  1.7007 2.5930 147.7 20.2 1.11 137
2020 02 29 22  08 48 18.627   +22 14 39.43  1.7010 2.5932 147.7 20.2 1.16 137
2020 02 29 23  08 48 18.503   +22 14 34.95  1.7014 2.5933 147.7 20.2 1.21 137
2020 03 01 00  08 48 18.380   +22 14 30.47  1.7018 2.5934 147.6 20.2 1.26 137
2020 03 01 01  08 48 18.260   +22 14 25.97  1.7021 2.5935 147.6 20.2 1.31 137
2020 03 01 02  08 48 18.142   +22 14 21.47  1.7025 2.5936 147.5 20.2 1.36 138
2020 03 01 03  08 48 18.026   +22 14 16.95  1.7029 2.5937 147.5 20.2 1.42 138
2020 03 01 04  08 48 17.913   +22 14 12.43  1.7032 2.5938 147.5 20.2 1.47 138
2020 03 01 05  08 48 17.802   +22 14 07.89  1.7036 2.5940 147.4 20.2 1.52 138
2020 03 01 06  08 48 17.693   +22 14 03.35  1.7040 2.5941 147.4 20.2 1.57 138
2020 03 01 07  08 48 17.586   +22 13 58.79  1.7043 2.5942 147.3 20.2 1.63 138
2020 03 01 08  08 48 17.481   +22 13 54.23  1.7047 2.5943 147.3 20.2 1.68 138
2020 03 01 09  08 48 17.379   +22 13 49.65  1.7051 2.5944 147.2 20.2 1.74 137
2020 03 01 10  08 48 17.279   +22 13 45.06  1.7054 2.5945 147.2 20.2 1.79 137
2020 03 01 11  08 48 17.181   +22 13 40.47  1.7058 2.5947 147.2 20.2 1.85 137
2020 03 01 12  08 48 17.085   +22 13 35.86  1.7062 2.5948 147.1 20.2 1.90 137
2020 03 01 13  08 48 16.991   +22 13 31.24  1.7065 2.5949 147.1 20.2 1.96 137
2020 03 01 14  08 48 16.900   +22 13 26.62  1.7069 2.5950 147.0 20.2 2.02 137
2020 03 01 15  08 48 16.811   +22 13 21.98  1.7073 2.5951 147.0 20.2 2.07 137
2020 03 01 16  08 48 16.724   +22 13 17.33  1.7076 2.5952 147.0 20.2 2.13 137
2020 03 01 17  08 48 16.640   +22 13 12.67  1.7080 2.5953 146.9 20.2 2.19 137
2020 03 01 18  08 48 16.558   +22 13 08.00  1.7084 2.5955 146.9 20.2 2.25 137
2020 03 01 19  08 48 16.477   +22 13 03.32  1.7088 2.5956 146.8 20.2 2.31 137
2020 03 01 20  08 48 16.400   +22 12 58.64  1.7091 2.5957 146.8 20.2 2.37 137
2020 03 01 21  08 48 16.324   +22 12 53.94  1.7095 2.5958 146.7 20.2 2.43 137
2020 03 01 22  08 48 16.251   +22 12 49.23  1.7099 2.5959 146.7 20.2 2.49 137
2020 03 01 23  08 48 16.179   +22 12 44.51  1.7102 2.5960 146.7 20.2 2.55 137
2020 03 02 00  08 48 16.111   +22 12 39.78  1.7106 2.5961 146.6 20.2 2.61 137